Regional Weather Roundup
Issued by NWS

Home | Current Version | Previous Version | Text Only | Print | Product List | Glossary Off
Versions: 1 2 3 4 5 6 7 8 9 10 11 12 13 14 15 16 17 18 19 20 21 22 23 24 25 26 27 28 29 30 31 32 33 34 35 36 37 38 39 40 41 42 43 44 45 46 47 48 49 50

000
ASUS43 KMPX 042201
RWRMN
WEATHER ROUNDUP FOR MINNESOTA
NATIONAL WEATHER SERVICE TWIN CITIES/CHANHASSEN MN
500 PM CDT TUE AUG 04 2015


NOTE: "FAIR" INDICATES FEW OR NO CLOUDS BELOW 12,000 FEET WITH NO
SIGNIFICANT WEATHER AND/OR OBSTRUCTIONS TO VISIBILITY. N/A MEANS
CURRENT SKY AND/OR WEATHER CONDITIONS ARE NOT AVAILABLE.

MNZ060>063-068>070-042300-
   Twin Cities Metro

CITY           SKY/WX    TMP DP  RH WIND       PRES   REMARKS
TWIN CITIES    MOSUNNY   80  50  34 W8        29.97S
ST PAUL        MOSUNNY   79  50  36 NW8       29.97S
CRYSTAL        PTSUNNY   82  50  32 W12       29.96S
BLAINE         PTSUNNY   79  52  38 NW9       29.97S
LAKEVILLE      MOSUNNY   77  54  44 W6        29.98F
EDEN PRAIRIE   MOSUNNY   81  50  33 NW6       29.97S
SOUTH ST PAUL  PTSUNNY   81  48  32 N7        29.96F
LAKE ELMO      FAIR      79  54  41 NW7       29.98F
$$
MNZ001>005-007-008-013>017-022>024-027-028-042300-
   Northwest Minnesota

CITY           SKY/WX    TMP DP  RH WIND       PRES   REMARKS
BEMIDJI        SUNNY     73  51  47 NE13      30.01S
HALLOCK        SUNNY     73  52  46 CALM      30.01S
ROSEAU         SUNNY     72  57  60 CALM      30.02S
WARROAD        SUNNY     66  55  68 NE7       30.04S
THIEF RVR FALL SUNNY     73  52  46 N7        30.01S
CROOKSTON      SUNNY     75  52  43 NE8       30.00S
FOSSTON        SUNNY     79  54  41 NE3       30.01S
DETROIT LAKES  SUNNY     77  50  38 N6        30.02S
MOORHEAD       SUNNY     77  54  44 N5        30.00S
PARK RAPIDS    SUNNY     77  49  37 N9        30.00S
MAHNOMEN       FAIR      74  55  50 N8        30.00S
$$
MNZ006-009>011-018-025>026-042300-
   North Central Minnesota

CITY           SKY/WX    TMP DP  RH WIND       PRES   REMARKS
BAUDETTE       SUNNY     69  53  56 NW7       30.03S
FLAG ISLAND    SUNNY     66  52  59 NE3       30.02S
INTL FALLS     CLOUDY    65  49  56 VRB3      30.03S
WASKISH        SUNNY     72  54  53 NW6       30.01F
BIG FORK       MOSUNNY   70  54  56 NE3       30.02R
LONGVILLE      SUNNY     73  52  46 N7        30.00S
GRAND RAPIDS   PTSUNNY   73  50  43 N13       30.00S
CRANE LAKE     CLOUDY    63  48  59 N3        30.04F
ORR            PTSUNNY   66  46  48 CALM      30.01S
COOK           MOSUNNY   66  52  59 NE5       30.02F
WALKER         FAIR      73  53  50 N9        30.00S
$$
MNZ012-019>021-037-042300-
   Northeast Minnesota

CITY           SKY/WX    TMP DP  RH WIND       PRES   REMARKS
DULUTH         MOSUNNY   73  49  42 N14       29.98F
ELY            CLOUDY    63  48  59 N3        30.02S
HIBBING        PTSUNNY   71  50  47 N9        30.00S
EVELETH        MOSUNNY   68  48  49 N7        30.01S
DULUTH HARBOR  SUNNY     63  54  72 E6        29.98S
TWO HARBORS    MOSUNNY   72  57  60 E5        29.97F
SILVER BAY     PTSUNNY   70  50  49 N5        29.98S
GRAND MARAIS     N/A     56  50  80 SW7       29.99S
G MARAIS ARPRT CLOUDY    59  45  58 W3        30.03S
$$
MNZ029>031-032-039>041-046>048-054>057-064-042300-
   West Central Minnesota

CITY           SKY/WX    TMP DP  RH WIND       PRES   REMARKS
FERGUS FALLS   SUNNY     79  50  36 N6        29.98S
WHEATON        SUNNY     77  52  41 CALM      30.00F
MORRIS         SUNNY     81  50  34 CALM      29.99S
ALEXANDRIA     SUNNY     79  50  36 VRB6      30.01F
ELBOW LAKE     FAIR      78  51  39 NW6       29.99F
WADENA         SUNNY     79  46  31 N9        30.00S
GLENWOOD       SUNNY     79  48  34 NW8       30.01S
APPLETON       MOSUNNY   81  48  32 W5        29.99S
BENSON         MOSUNNY   81  46  30 CALM      30.00R
ORTONVILLE     MOSUNNY   81  48  32 CALM      30.00S
MADISON        MOSUNNY   79  50  36 CALM      30.00S
WILLMAR        FAIR      81  52  36 NW6       30.01S
$$
MNZ033>034-036-042>043-049>051-058-059-042300-
   Central Minnesota

CITY           SKY/WX    TMP DP  RH WIND       PRES   REMARKS
ST CLOUD       MOSUNNY   81  49  32 NW8       29.98S
SAUK CENTRE    FAIR      78  51  37 NW10G17   29.99S
PAYNESVILLE    SUNNY     77  47  34 CALM      30.00S
AITKIN         MOSUNNY   75  54  46 W5        29.98R
PINE RIVER     SUNNY     75  54  46 N8        30.02S
BRAINERD       SUNNY     78  51  38 N8        29.99S
STAPLES        PTSUNNY   79  46  31 NW10      29.99S
LONG PRAIRIE   FAIR      77  50  38 W6        30.00S
LITCHFIELD     SUNNY     79  48  34 NW5       30.00S
BUFFALO        SUNNY     78  47  33 W7        29.99S
$$
MNZ037-044-045-052-053-042300-
   East Central Minnesota

CITY           SKY/WX    TMP DP  RH WIND       PRES   REMARKS
PRINCETON      MOSUNNY   82  52  34 W9        29.98S
MORA           SUNNY     75  52  43 NW9       30.00R
CAMBRIDGE      MOSUNNY   81  57  44 N8        29.95F
RUSH CITY      SUNNY     77  52  41 N10       29.98R
MOOSE LAKE     PTSUNNY   73  50  43 N10       29.96S
HINCKLEY       MOCLDY    77  55  47 NW7       29.98R
CLOQUET        SUNNY     72  48  43 NW8G18    29.98S
MCGREGOR       MOSUNNY   73  52  46 NW8G16    29.99S
$$
MNZ071>073-080-081-089-090-097-098-042300-
   Southwest Minnesota

CITY           SKY/WX    TMP DP  RH WIND       PRES   REMARKS
MONTEVIDEO     MOSUNNY   84  54  34 E3        30.02R
GRANITE FALLS  MOSUNNY   79  52  39 CALM      30.01S
CANBY          MOSUNNY   80  52  37 N5        30.01S
MARSHALL       PTSUNNY   79  54  41 S3        30.02S
REDWOOD FALLS  PTSUNNY   80  48  32 VRB3      29.99S
OLIVIA         MOSUNNY   77  50  38 NW5       30.00R
PIPESTONE      PTSUNNY   79  59  50 E5        30.01F
WINDOM         PTSUNNY   77  52  41 CALM      30.01S
WORTHINGTON    CLOUDY    75  55  50 S3        30.01F
JACKSON        PTSUNNY   77  54  44 NE5       30.01S
SLAYTON        PTSUNNY   78  55  44 CALM      30.03S
$$
MNZ065>067-074>077-082>085-091>093-042300-
   South Central Minnesota

CITY           SKY/WX    TMP DP  RH WIND       PRES   REMARKS
MANKATO        MOSUNNY   77  52  41 CALM      29.99F
NEW ULM        MOSUNNY   79  46  31 CALM      29.99S
ST JAMES       MOSUNNY   79  54  41 CALM      30.00S
FAIRMONT       MOSUNNY   77  48  36 CALM      30.00R
GLENCOE        MOSUNNY   80  53  38 NW5       29.99S
FARIBAULT      MOSUNNY   77  54  44 NW3       30.00S
OWATONNA       MOSUNNY   77  48  36 NW5       30.00S
WASECA         MOSUNNY   77  52  41 CALM      30.01S
ALBERT LEA     MOSUNNY   77  48  36 N3        29.99F
$$
MNZ078>079-086>088-094>096-042300-
   Southeast Minnesota

CITY           SKY/WX    TMP DP  RH WIND       PRES   REMARKS
ROCHESTER      MOSUNNY   76  56  49 W6        30.00F
RED WING       MOSUNNY   82  48  30 W9        29.96S
STANTON        MOSUNNY   79  51  38 W6        29.97F
DODGE CENTER   MOSUNNY   75  50  41 W5        30.00S
WINONA         MOSUNNY   79  52  38 N6        29.97F
AUSTIN         MOSUNNY   77  50  38 CALM      29.99S
PRESTON        PTSUNNY   74  55  49 NW5       30.00F
$$
ABBREVIATIONS USED IN REMARKS
   TC - TEMPERATURES IN CELSIUS
  WCI - WIND CHILL INDEX
   HX - HEAT INDEX
  VSB - VISIBILITY
$$


USA.gov is the U.S. government's official web portal to all federal, state and local government web resources and services.